Regional Weather Roundup
Issued by NWS

Home | Current Version | Previous Version | Text Only | Print | Product List | Glossary Off
Versions: 1 2 3 4 5 6 7 8 9 10 11 12 13 14 15 16 17 18 19 20 21 22 23 24 25 26 27

000
ASUS45 KCYS 241510
RWRWY

WYOMING REGIONAL WEATHER ROUNDUP
NATIONAL WEATHER SERVICE CHEYENNE WY
900 AM MDT THU APR 24 2014

NOTE:  "FAIR" INDICATES FEW OR NO CLOUDS BELOW 12,000 FEET
WITH NO SIGNIFICANT WEATHER AND/OR OBSTRUCTIONS TO VISIBILITY.

WYZ001-241600-
YELLOWSTONE NATIONAL PARK

CITY           SKY/WX    TMP DP  RH WIND       PRES   REMARKS
LK YELLOWSTONE   N/A     32  19  58 VRB7G17   29.99F WCI  26
W YELLOWSTONE  NOT AVBL

$$
WYZ002>013-054>058-071-098>099-241600-
NORTHERN WYOMING

CITY           SKY/WX    TMP DP  RH WIND       PRES   REMARKS
JACKSON        CLOUDY    34  25  69 SW14      30.00F WCI  24
CODY           MOSUNNY   46  19  34 W13G26    29.88F
GREYBULL       SUNNY     43  21  41 E8        29.92S
WORLAND        MOSUNNY   44  23  43 NW3       29.91S
SHERIDAN         N/A     34  16  47 SW24        N/A  WCI  21
BUFFALO        SUNNY     46  17  31 N7        29.89S
GILLETTE       SUNNY     48  22  35 SW15      29.88R
HULETT         CLOUDY    43  25  49 W6        29.91
NEWCASTLE      FAIR      43  25  49 S3        29.91

$$
WYZ014>020-022>026-101>103-241600-
CENTRAL WYOMING

CITY           SKY/WX    TMP DP  RH WIND       PRES   REMARKS
BIG PINEY      CLOUDY    31  19  61 SW6       30.07R WCI  25
PINEDALE       CLOUDY    30  23  74 E3        30.07S
DUBOIS         PTSUNNY   37  19  48 NW14G20   29.95S WCI  29
LANDER         PTSUNNY   37  23  56 E6        29.96F WCI  32
RIVERTON       PTSUNNY   40  16  37 SW8       29.97S WCI  34
CASPER         SUNNY     42  18  37 SW22G33   29.96F
DOUGLAS        SUNNY     47  21  35 NW12      29.95S

$$
WYZ021-027>030-104>119-241600-
SOUTHERN WYOMING

CITY           SKY/WX    TMP DP  RH WIND       PRES   REMARKS
EVANSTON       PTSUNNY   35  18  49 SW12      30.08S WCI  27
KEMMERER       MOSUNNY   34  19  55 CALM      30.08S
FORT BRIDGER   FAIR      41  19  42 W14       30.11S
ROCK SPRINGS   SUNNY     40  16  37 W9        30.08F WCI  34
DIXON          FAIR      36  22  56 CALM      30.15S
RAWLINS        SUNNY     39  17  41 SW22G32   30.06S WCI  29
SARATOGA       FAIR      37  18  44 SW21G29   30.09R WCI  27
LARAMIE        SUNNY     37  14  38 NW14G23   30.03S WCI  28
CHEYENNE       SUNNY     43  15  32 W18G28    30.01R
TORRINGTON     SUNNY     49  21  33 W17       29.94F
PINE BLUFFS    FAIR      46  18  31 NW25G32   30.00S

$$



USA.gov is the U.S. government's official web portal to all federal, state and local government web resources and services.